Location: Kuppenheim
(48.8299°N, 8.2568°E)
Time: 06:53:55
(UTC+00:00)

N. Korean satellite - Pass Details

Date: 07 December 2022
Orbit: 407 x 442 km, 97.3° (Epoch: 04 February)

Event Time Altitude Azimuth Distance (km) Brightness Sun altitude
Rises 16:43:02 0° 200° (SSW) 2,464 10.8 -11.3°
Reaches altitude 10° 16:45:27 10° 219° (SW) 1,606 10.2 -11.7°
Maximum altitude 16:48:02 20° 267° (W) 1,146 9.5 -12.1°
Drops below altitude 10° 16:50:40 10° 316° (NW) 1,632 9.5 -12.5°
Sets 16:53:09 0° 334° (NNW) 2,519 10.3 -12.9°
